Back to catalog

N2-P-BODY

AliveScienceSSO
NORAD 69929·PAYLOAD·🇺🇸 United States

Launched Jul 7, 2026 from Vandenberg Space Force Base

Loading…

Next Passes (next 24 hours)

TLE

FreshSource: Space-Track

Epoch: Sep 14, 2026, 12:44 UTC

1 69929U 26156BN  26257.53069681  .00004227  00000-0  41481-3 0  9991
2 69929  97.7463 156.9153 0007341 294.7972  65.2483 14.92712395 10325

Track N2-P-BODY in real time with AllMySat

Download on the App Store